User: anonymous   Login
Location: Fort Wayne
(41.1310°N, 85.1290°W)
Time: 07:39:31
(UTC-05:00)
Language:

SL-08 RB Rocket - Orbit

View from above orbital plane
View from above orbital plane
View from above satellite
View from above satellite

Ground track
Ground track

The orbit data is extracted from the following two-line orbital elements,

1 26387U 00033D   16344.84959723  .00000095  00000-0  24823-4 0  9994
2 26387  97.9977  47.7283 0025773 216.4328 275.7670 14.68223105880098
Epoch (UTC): 09 December 2016 20:23:25
Eccentricity: 0.0025773
inclination: 97.9977°
perigee height: 648 km
apogee height: 685 km
right ascension of ascending node: 47.7283°
argument of perigee: 216.4328°
revolutions per day: 14.68223105
mean anomaly at epoch: 275.7670°
orbit number at epoch: 88009

The dashed part of the orbit path shows where the satellite is in the earth's shadow,  

DLR